Theta_e
344 344 346 346 346 345 344 344 344 343 342 342 344 342 339 341 343 343 342 337 336 338 343 343 345 344 341 341 341 338 337 334 326 324 326 328 328 325 332 336 334 330 335
344 346 345 346 346 346 346 345 343 342 342 342 343 343 343 344 344 344 343 343 342 335 337 342 343 343 344 341 341 342 340 340 338 332 326 323 325 329 327 327 336 335 331
347 345 344 345 347 348 347 348 347 346 346 345 344 343 343 342 343 344 344 343 338 339 338 337 341 342 343 342 342 340 341 341 340 337 335 333 326 323 325 327 326 333 338
346 345 346 345 348 348 347 347 346 342 339 341 347 344 344 343 343 342 342 342 343 341 340 342 337 339 342 342 342 341 341 342 341 339 339 338 336 332 326 323 324 324 325
344 345 343 343 345 347 345 346 345 341 332 337 339 338 340 338 339 342 342 342 340 342 339 343 344 343 338 339 340 340 340 339 342 344 340 340 339 338 335 331 326 326 328
344 342 339 334 333 336 340 344 345 344 339 334 331 329 331 332 334 335 335 337 340 340 341 339 341 340 343 343 342 339 339 339 340 344 344 343 341 339 339 337 334 332 333
344 340 336 336 338 340 342 339 341 347 344 338 333 327 323 322 325 327 333 337 335 332 342 341 340 341 344 342 342 343 343 340 341 341 342 343 344 343 340 339 338 335 336
341 339 341 343 342 342 340 343 340 339 342 337 333 332 334 328 332 333 329 329 330 330 331 336 335 337 337 342 342 343 345 343 341 342 342 341 342 343 343 342 339 339 338
342 343 344 346 344 342 337 331 324 331 331 327 328 332 334 333 331 331 329 330 330 331 331 332 332 332 335 338 338 340 342 344 343 343 342 342 342 343 342 344 343 343 340
346 346 347 347 347 341 330 322 324 325 324 323 323 327 331 332 334 334 333 332 330 329 329 329 330 332 334 335 336 338 341 344 345 346 345 343 342 342 342 343 345 345 345
348 348 349 349 347 336 321 320 321 321 322 324 327 329 330 331 332 332 333 331 329 329 328 327 326 326 328 330 333 333 340 339 340 342 343 345 345 344 344 343 344 345 344
346 348 348 347 337 324 319 320 321 322 327 330 331 331 331 332 331 330 329 328 326 325 324 324 325 326 325 324 324 329 332 335 337 338 339 340 342 345 344 344 344 343 345
346 345 344 341 334 320 318 320 322 327 329 330 330 328 328 329 329 328 325 322 323 320 320 319 318 318 318 319 321 322 323 331 333 337 338 341 339 342 343 345 344 344 344
344 343 345 339 325 319 319 324 329 330 331 329 326 323 323 323 323 322 319 318 318 320 321 322 321 320 320 320 319 319 319 320 326 332 335 339 341 343 344 343 343 344 344
342 341 343 331 320 319 322 328 329 327 324 321 321 320 320 319 318 318 318 320 321 322 322 322 322 323 322 321 322 322 319 320 320 322 330 334 336 337 340 340 334 338 344
338 343 338 324 320 321 326 328 324 321 319 318 318 318 318 318 319 320 321 321 323 322 321 322 323 322 322 323 323 323 323 322 322 321 322 326 334 336 337 338 335 335 342
342 342 328 321 321 324 328 322 320 319 318 317 316 315 316 318 320 322 322 322 322 322 321 321 322 323 322 322 322 323 324 325 324 324 321 322 325 336 337 335 335 334 333
341 333 323 322 322 328 323 320 319 318 317 317 314 314 319 322 321 322 322 322 322 323 323 322 323 323 323 322 323 323 325 325 326 329 326 322 322 327 335 337 335 333 334
335 329 322 323 324 326 321 320 321 318 318 316 314 316 321 323 322 321 322 321 322 322 323 323 324 323 324 324 324 324 324 324 323 325 326 323 321 324 332 337 334 333 336
328 323 323 323 328 324 321 322 320 319 318 316 315 314 321 323 323 322 322 322 322 322 321 322 322 323 324 324 324 324 324 324 322 323 325 324 321 323 331 334 338 334 335
325 323 321 326 328 322 322 321 321 320 319 317 316 313 323 323 323 323 323 323 320 320 321 321 321 323 325 324 325 326 324 323 322 322 324 326 324 324 331 332 338 337 335
327 322 323 329 324 321 323 322 322 322 319 317 315 313 324 324 322 322 322 323 320 320 323 324 325 323 324 325 327 327 325 324 324 327 330 332 330 330 331 332 336 337 336
324 322 325 324 320 321 323 323 323 323 320 316 313 317 323 322 321 322 322 322 322 328 330 330 329 330 329 325 326 327 326 326 327 331 336 336 334 332 332 332 335 336 334
323 323 324 319 319 322 324 324 324 323 319 315 311 322 323 321 322 322 322 322 322 327 327 327 327 332 331 331 327 327 327 327 330 331 331 332 333 336 336 335 334 333 334
323 322 321 319 321 324 324 325 324 322 317 313 310 320 322 321 323 323 322 322 322 327 328 328 329 332 333 331 330 327 326 327 329 331 332 333 334 334 338 339 338 339 339
324 323 321 321 324 326 326 325 324 318 318 310 308 318 321 320 323 322 320 320 321 321 323 331 330 332 333 331 328 326 327 328 330 333 333 333 335 336 338 338 337 337 337
Wind_Speed
5 5 7 8 9 10 11 11 12 12 13 13 13 14 13 14 15 16 17 17 20 21 18 17 17 14 13 12 13 14 13 13 14 15 15 14 14 14 13 13 13 11 12
8 9 7 8 9 12 12 14 14 16 16 16 16 16 16 15 16 16 17 17 18 20 22 22 18 17 16 13 14 15 16 15 14 14 15 15 16 15 15 15 14 14 13
8 8 8 8 9 12 13 14 14 15 17 19 19 18 17 18 20 20 18 18 18 19 23 25 25 22 20 18 16 15 16 17 16 15 15 15 15 17 17 16 15 15 16
7 10 11 11 11 14 16 17 18 18 20 21 21 20 20 21 22 22 21 21 24 28 24 22 26 28 26 24 22 21 19 19 20 18 16 16 16 16 16 17 17 16 16
11 12 13 12 11 14 15 18 18 21 21 20 20 20 21 22 23 22 22 22 25 21 18 20 21 24 27 28 27 27 25 23 23 21 20 17 17 17 17 17 17 16 16
17 13 11 9 11 13 15 18 20 22 23 23 22 23 21 20 19 17 17 17 17 19 22 24 25 25 27 27 27 28 28 25 25 24 21 21 19 18 18 18 18 18 17
13 9 9 10 12 15 17 19 23 25 26 25 26 28 27 23 16 19 12 10 15 17 13 15 18 20 22 28 31 30 29 30 28 27 26 24 22 20 19 20 19 19 18
12 13 13 13 14 17 19 21 23 22 24 24 26 26 19 31 8 12 23 19 20 18 18 19 21 23 23 24 23 25 27 28 32 32 30 28 27 26 24 22 22 21 20
13 13 14 15 17 19 20 23 20 20 23 23 19 18 14 10 33 21 30 22 23 24 22 21 21 23 23 24 25 26 26 29 31 32 31 30 29 29 27 28 25 23 23
15 16 17 18 19 20 22 19 18 18 19 20 20 17 15 20 24 22 21 32 29 28 30 27 25 23 23 26 27 28 26 23 27 32 31 31 31 30 29 30 31 28 26
17 18 19 19 20 22 22 19 18 17 16 16 16 19 21 21 22 24 30 35 39 37 35 34 32 29 26 26 26 27 30 29 28 28 29 31 33 32 32 31 32 33 29
18 19 19 19 22 22 22 18 17 15 14 14 14 16 20 22 25 27 31 39 42 45 44 43 41 37 34 31 28 27 27 31 31 33 29 31 32 32 31 31 32 33 35
19 19 20 21 22 21 21 18 15 15 14 14 16 19 19 21 24 28 32 42 39 49 50 48 44 42 40 38 35 30 29 29 30 31 32 30 32 31 30 30 30 33 35
23 23 23 22 22 21 18 15 14 13 15 18 19 20 22 22 24 28 32 40 52 49 48 46 47 47 43 40 37 35 33 29 31 30 33 33 32 32 30 30 30 30 31
30 28 24 22 20 18 14 14 13 14 16 18 20 23 25 29 30 32 36 38 43 43 53 57 48 41 44 43 39 36 35 32 30 32 31 33 35 33 34 33 30 29 30
35 33 23 21 19 14 12 12 13 14 16 19 22 25 27 29 31 34 38 42 45 44 48 48 54 46 42 40 41 39 40 38 36 34 33 33 34 35 34 34 29 28 27
37 27 22 19 15 12 11 11 11 13 17 20 25 29 28 30 33 36 40 43 44 43 49 50 48 48 44 43 40 36 34 36 39 38 35 35 34 34 34 33 32 31 31
28 24 22 17 13 11 10 10 11 15 19 24 29 29 29 32 33 39 41 42 46 50 50 54 53 52 50 45 39 36 34 33 34 36 38 38 37 36 36 34 33 30 28
27 24 20 14 11 10 10 10 13 17 21 25 31 31 33 30 34 37 44 46 48 48 50 51 54 54 52 46 38 36 34 33 34 37 39 38 37 37 35 34 32 29 28
22 21 16 12 10 10 9 11 14 19 23 26 32 32 34 31 37 42 45 50 54 54 54 47 51 50 48 42 36 34 34 34 35 36 36 35 35 36 35 36 32 29 31
20 17 13 11 9 9 10 13 16 21 24 29 33 33 34 32 37 39 46 54 54 49 49 46 43 42 45 38 35 32 31 31 32 30 30 27 31 35 35 34 32 32 31
15 14 12 10 10 9 12 14 18 23 26 30 34 33 33 33 38 41 49 53 44 39 34 31 32 37 42 39 34 31 27 24 26 16 20 23 27 31 31 31 30 28 28
13 13 11 11 10 10 12 16 20 23 27 31 32 33 32 33 38 43 54 54 47 26 22 26 29 29 32 35 32 27 22 21 20 14 8 11 17 23 25 27 26 26 25
12 11 11 10 10 10 14 16 19 23 27 31 29 28 31 34 36 41 52 56 43 23 29 30 30 29 26 23 25 21 19 18 14 14 16 16 14 9 8 16 21 23 23
13 12 10 10 10 12 14 16 19 23 28 31 25 24 28 31 34 39 45 52 42 29 39 36 30 18 16 18 13 15 13 15 14 13 10 12 13 9 6 9 15 19 18
12 11 10 9 12 13 14 16 19 23 29 29 22 21 24 27 31 36 41 44 42 39 39 30 24 15 5 10 15 14 10 12 8 4 7 12 10 10 10 9 9 9 10
Wind_Direction
341 333 359 359 353 337 324 323 313 308 310 299 293 301 275 277 290 288 285 278 274 270 269 273 270 273 267 269 273 274 277 275 273 271 266 262 261 258 258 261 264 261 257
291 313 316 331 349 337 335 331 313 304 304 309 304 293 286 287 289 293 289 284 282 276 266 265 269 272 269 264 268 269 272 274 273 273 273 266 262 258 253 252 257 262 262
298 303 304 320 332 327 330 333 326 315 307 304 301 297 291 289 285 288 289 285 286 283 275 264 262 264 267 267 263 267 272 270 268 267 269 269 266 260 256 252 247 250 258
312 311 307 314 310 314 319 324 324 321 320 314 299 297 293 294 287 283 286 279 279 291 273 271 267 264 264 264 265 264 265 270 265 262 263 264 263 263 260 255 252 246 248
294 302 313 318 308 305 313 317 320 322 326 324 312 309 301 296 299 284 287 289 278 283 270 267 276 272 266 265 265 264 263 264 267 260 258 261 261 260 259 257 255 252 249
294 290 301 316 311 311 313 311 313 317 323 321 316 313 310 308 302 300 295 289 284 289 269 267 271 270 266 266 268 265 262 260 260 261 257 255 256 258 261 259 256 252 251
272 280 296 300 302 306 313 314 314 313 317 321 319 314 312 312 308 297 291 300 290 299 277 267 270 277 274 265 263 262 265 261 257 255 259 257 251 253 258 259 258 255 253
255 264 277 292 302 310 309 305 307 309 311 318 321 324 330 325 334 300 304 305 300 289 283 272 278 276 276 266 264 259 260 261 260 257 254 255 254 257 257 257 254 254 254
248 260 269 286 301 308 311 310 308 308 309 314 319 320 324 308 314 319 314 312 309 305 301 294 285 282 281 277 269 260 261 251 254 258 256 254 255 255 256 256 255 254 252
244 255 268 284 299 306 311 312 311 308 309 311 315 317 308 304 311 314 310 310 314 310 308 303 295 288 282 271 272 265 255 253 251 250 251 254 255 255 255 254 251 253 255
254 262 272 285 296 306 310 314 317 318 316 318 320 318 315 313 310 308 310 309 309 310 309 306 303 298 290 283 277 267 256 258 254 252 250 252 254 256 255 255 254 249 250
265 270 274 285 294 303 307 314 318 322 322 317 315 314 310 311 312 311 309 308 309 308 306 303 300 298 296 290 283 278 268 257 257 255 255 252 252 253 255 254 254 253 250
266 271 278 283 290 300 304 310 314 320 316 316 315 315 310 307 307 307 309 311 308 307 306 304 302 300 295 291 285 281 272 267 257 252 251 248 245 244 250 253 255 253 251
268 273 278 276 286 294 303 301 311 316 312 317 317 316 313 311 308 306 307 309 308 305 304 300 304 302 298 296 290 283 277 269 263 257 250 246 245 240 242 249 249 254 253
277 274 272 273 282 291 294 299 305 313 318 323 322 321 318 317 312 309 308 308 307 296 300 302 297 295 295 294 289 283 275 270 262 256 255 249 245 245 243 244 253 249 252
273 271 263 270 280 285 295 300 314 325 327 328 328 325 319 321 318 317 313 309 305 297 285 293 301 297 292 287 283 277 274 270 264 256 249 248 246 245 245 244 246 246 247
269 260 261 267 273 285 292 311 320 326 327 331 334 325 320 321 316 319 317 314 313 309 293 293 290 300 296 293 280 278 279 277 262 255 248 244 244 244 244 244 247 250 251
258 256 260 262 274 281 299 308 317 325 330 333 335 329 325 323 319 322 323 323 322 312 295 288 293 288 292 289 286 275 276 280 262 251 245 242 243 242 242 244 246 248 252
251 257 257 265 273 281 295 305 317 326 333 334 335 330 328 326 326 331 332 327 313 306 296 285 287 287 284 285 284 281 278 275 263 260 253 243 237 238 238 238 238 245 240
242 249 258 271 275 294 303 313 318 326 329 333 333 330 328 326 329 337 333 322 317 307 301 286 283 281 280 279 274 278 276 274 267 265 258 249 236 234 236 237 237 236 237
237 249 265 270 278 289 300 311 317 323 327 331 333 332 329 326 333 336 328 329 316 312 305 292 279 275 276 272 271 277 274 275 272 271 258 240 232 229 232 234 236 238 237
249 261 267 266 281 292 299 309 315 318 325 329 332 332 331 332 337 337 334 338 329 315 315 304 291 266 270 266 273 275 274 274 275 265 240 236 229 229 233 232 234 238 239
254 262 266 275 286 285 301 303 310 315 324 328 333 334 337 343 341 341 343 348 337 330 334 332 302 286 280 270 272 271 265 262 263 241 199 227 233 234 237 235 230 237 245
259 268 265 276 284 288 297 302 308 315 325 330 333 336 342 345 346 345 349 353 340 337 336 321 310 288 274 272 271 272 263 260 272 261 247 253 252 235 221 220 227 238 239
254 258 257 270 275 279 291 308 305 320 328 331 334 336 343 347 349 349 353 358 348 352 348 334 310 267 258 264 260 264 255 263 276 253 235 240 246 221 231 214 225 228 211
255 249 252 266 268 287 299 305 313 324 328 331 336 337 346 351 353 359 3 3 358 14 5 13 23 27 341 266 238 251 234 230 254 277 216 226 222 186 171 157 157 159 172